[[{"header":{"parameterUnit":"m.s-1","parameterCategory":1,"la1":30.2992,"la2":30.254,"lo1":-89.0895,"lo2":-89.0443,"dy":0.0025,"dx":0.0025,"nx":19,"ny":19,"refTime":"2026-05-07T21:00:00:Z","depth":0,"parameterNumber":2,"parameterNumberName":"U-component_of_WINDS"},"data":[0,0,0,-0.2025,-0.2027,-0.2122,-0.2123,-0.2245,-0.2246,0,0,0,0,0,0,0,0,0,0,0,-0.1997,-0.1998,-0.2025,-0.2028,-0.2122,-0.2123,-0.2244,-0.2246,0,0,0,0,0,0,0,0,0,0,0,-0.1997,-0.1998,-0.1999,-0.2028,-0.2122,-0.2123,-0.2244,-0.2173,0,0,0,0,0,0,0,0,0,0,-0.2081,-0.2054,-0.1997,-0.1999,-0.2029,-0.2122,-0.2123,-0.2169,-0.2177,-0.2202,0,-0.2222,0,-0.2236,-0.2254,-0.2254,0,0,0,-0.2028,-0.2047,-0.2073,-0.1999,-0.2029,-0.2122,-0.208,-0.2174,-0.2183,-0.2212,-0.2224,-0.2229,-0.2238,-0.2255,-0.2255,-0.2391,-0.2391,0,0,-0.2023,-0.2014,-0.2067,-0.2079,-0.2063,-0.2077,-0.2083,-0.2179,-0.2192,-0.2225,-0.2232,-0.224,-0.2255,-0.2256,-0.239,-0.2391,0,0,0,-0.2008,-0.2011,-0.2034,-0.2073,-0.209,-0.208,-0.2086,-0.2188,-0.2196,-0.2233,-0.2241,-0.2256,-0.2258,-0.239,-0.2391,-0.2411,0,0,0,-0.2005,-0.2001,-0.2032,-0.2027,-0.2089,-0.214,-0.2093,-0.219,-0.2201,-0.2241,-0.2256,-0.2259,-0.2389,-0.239,-0.241,-0.2424,0,0,0,-0.1991,-0.2,-0.2013,-0.2026,-0.2067,-0.2139,-0.2153,-0.2192,-0.2206,-0.2254,-0.2259,-0.2389,-0.239,-0.2408,-0.2421,-0.2457,0,0,0,-0.1974,-0.2032,-0.2013,-0.208,-0.2066,-0.215,-0.2152,-0.2216,-0.226,-0.2257,-0.2389,-0.239,-0.2407,-0.2419,-0.2455,-0.2487,-0.2499,0,0,-0.2042,-0.2039,-0.2079,-0.2066,-0.2151,-0.2136,-0.2225,-0.2275,-0.2288,-0.2356,-0.236,-0.241,-0.2421,-0.2457,-0.2566,-0.2576,0,0,0,-0.2098,-0.2126,-0.2151,-0.2191,-0.2229,-0.2263,-0.2299,-0.2317,-0.2375,-0.2321,-0.2433,-0.2439,-0.2461,-0.2476,-0.2484,-0.2504,-0.2397,-0.2397,-0.2397,-0.2182,-0.2194,-0.2261,-0.2284,-0.2323,-0.2359,-0.2392,-0.2423,-0.2425,-0.2451,-0.2472,-0.2537,-0.2555,-0.2561,-0.2581,-0.2488,-0.2489,-0.2489,-0.2489,-0.2283,-0.2326,-0.2324,-0.2389,-0.2402,-0.2457,-0.2492,-0.2492,-0.2545,-0.2523,-0.2542,-0.2518,-0.2571,-0.2589,-0.249,-0.249,-0.249,-0.249,-0.249,-0.2341,-0.2364,-0.2383,-0.2441,-0.2485,-0.2507,-0.2557,-0.2567,-0.2576,-0.2595,-0.2619,-0.2618,-0.262,-0.2605,-0.2606,-0.2606,-0.2606,-0.2606,-0.2606,-0.2394,-0.2415,-0.2456,-0.2499,-0.2525,-0.2562,-0.2596,-0.2623,-0.2655,-0.2658,-0.2658,-0.2658,-0.2573,-0.2552,-0.261,-0.2609,-0.2609,-0.2608,-0.2608,-0.2495,-0.2473,-0.2537,-0.2563,-0.2613,-0.2656,-0.2666,-0.2719,-0.2742,-0.2767,-0.2761,-0.2696,-0.2695,-0.2689,-0.2672,-0.2758,-0.2758,-0.2758,-0.2758,-0.2546,-0.2545,-0.2611,-0.2652,-0.2693,-0.2708,-0.278,-0.2806,-0.283,-0.2845,-0.2834,-0.2811,-0.2804,-0.2808,-0.2799,-0.2783,-0.2895,-0.2895,-0.2896,-0.2609,-0.2612,-0.2671,-0.2693,-0.2732,-0.2766,-0.2833,-0.2881,-0.2904,-0.2901,-0.2858,-0.2852,-0.2816,-0.2803,-0.2802,-0.2788,-0.276,0,0]},{"header":{"parameterUnit":"m.s-1","parameterCategory":1,"la1":30.2992,"la2":30.254,"lo1":-89.0895,"lo2":-89.0443,"dy":0.0025,"dx":0.0025,"nx":19,"ny":19,"refTime":"2026-05-07T21:00:00:Z","depth":0,"parameterNumber":3,"parameterNumberName":"V-component_of_WINDS"},"data":[0,0,0,-4.0188,-4.019,-4.0307,-4.0308,-4.0464,-4.0465,0,0,0,0,0,0,0,0,0,0,0,-4.016,-4.0161,-4.0188,-4.0191,-4.0307,-4.0308,-4.0464,-4.0465,0,0,0,0,0,0,0,0,0,0,0,-4.0159,-4.0161,-4.0163,-4.0191,-4.0307,-4.0308,-4.0463,-4.0372,0,0,0,0,0,0,0,0,0,0,-4.0257,-4.0239,-4.016,-4.0163,-4.0192,-4.0307,-4.0308,-4.0368,-4.0378,-4.0415,0,-4.0452,0,-4.0461,-4.0477,-4.0477,0,0,0,-4.0185,-4.023,-4.0256,-4.0163,-4.0193,-4.0307,-4.0253,-4.0373,-4.0385,-4.0428,-4.0454,-4.0459,-4.0464,-4.0478,-4.0478,-4.0719,-4.0721,0,0,-4.0178,-4.0184,-4.0248,-4.0264,-4.0249,-4.0249,-4.0257,-4.038,-4.0407,-4.0454,-4.0463,-4.0467,-4.0479,-4.048,-4.0718,-4.072,0,0,0,-4.0164,-4.0179,-4.0202,-4.0258,-4.0279,-4.0253,-4.0261,-4.0402,-4.0409,-4.0465,-4.0468,-4.048,-4.0482,-4.0716,-4.0718,-4.0796,0,0,0,-4.016,-4.0171,-4.02,-4.0204,-4.0277,-4.0342,-4.028,-4.04,-4.0414,-4.0468,-4.048,-4.0483,-4.0715,-4.0717,-4.0791,-4.0833,0,0,0,-4.015,-4.017,-4.0189,-4.0204,-4.0255,-4.034,-4.0354,-4.0403,-4.0417,-4.0477,-4.0484,-4.0714,-4.0717,-4.0786,-4.0824,-4.09,0,0,0,-4.014,-4.0253,-4.019,-4.0318,-4.0254,-4.0387,-4.0353,-4.0451,-4.0512,-4.0481,-4.0715,-4.0718,-4.0785,-4.082,-4.0895,-4.0968,-4.0998,0,0,-4.0286,-4.0271,-4.0346,-4.0293,-4.044,-4.0369,-4.0526,-4.0575,-4.0573,-4.067,-4.0676,-4.0793,-4.0824,-4.0899,-4.1158,-4.1182,0,0,0,-4.0394,-4.0449,-4.0486,-4.0547,-4.0589,-4.0628,-4.0653,-4.0671,-4.0754,-4.0625,-4.0839,-4.0857,-4.0901,-4.0935,-4.0956,-4.0994,-4.0734,-4.0733,-4.0733,-4.0609,-4.0605,-4.0729,-4.0739,-4.0798,-4.0823,-4.087,-4.0899,-4.0873,-4.0924,-4.0954,-4.1112,-4.1152,-4.1168,-4.1208,-4.0988,-4.0989,-4.0989,-4.0989,-4.0825,-4.0903,-4.087,-4.098,-4.0973,-4.1063,-4.1092,-4.1071,-4.1154,-4.1088,-4.1127,-4.1058,-4.1194,-4.1229,-4.0995,-4.0994,-4.0993,-4.0993,-4.0992,-4.0969,-4.1006,-4.1027,-4.1116,-4.1184,-4.1188,-4.1271,-4.1259,-4.1249,-4.1287,-4.1319,-4.1318,-4.1318,-4.1303,-4.1303,-4.1304,-4.1304,-4.1305,-4.1305,-4.111,-4.1132,-4.1205,-4.1261,-4.13,-4.1349,-4.1376,-4.1412,-4.145,-4.1435,-4.1436,-4.1408,-4.1208,-4.116,-4.1314,-4.1312,-4.1311,-4.131,-4.131,-4.1337,-4.1284,-4.1397,-4.1436,-4.1502,-4.1571,-4.1556,-4.1632,-4.166,-4.1702,-4.1664,-4.1518,-4.1501,-4.1484,-4.1445,-4.1664,-4.1664,-4.1664,-4.1664,-4.1461,-4.1451,-4.1566,-4.1629,-4.1689,-4.1688,-4.1815,-4.1836,-4.185,-4.1867,-4.1833,-4.1778,-4.1762,-4.1755,-4.1732,-4.1696,-4.1973,-4.1974,-4.1974,-4.1601,-4.1598,-4.1709,-4.1725,-4.1776,-4.1819,-4.1938,-4.2011,-4.2014,-4.1986,-4.1881,-4.1868,-4.1779,-4.175,-4.1723,-4.1689,-4.1621,0,0]}]]